Content
SEND FEEDBACK

Daily
Averages
Monthly
Summary
Austria

INNSBRUCK, AUSTRIA


Home > Europe > Austria
Elevation: 1994 feet     Latitude: 47 15N     Longitude: 011 20E

WEATHER
 
SELECT A DAY
Number of Records: 311,557;   Date Range: 7/1/96 - 8/31/14
 
SHARE

PRINT THIS DATA

[ ← Previous Day ]
WEATHER ALMANAC - JANUARY 19, 2013
[ Next Day → ]
[ °C ]   °F
Weather ElementAverageHighLow
Temperature24.7 °F35.6 °F (2:20 pm)10.4 °F (3:20 am)
Dewpoint19.9 °F28.4 °F (8:20 pm)8.6 °F (3:20 am)
Humidity82.2 %100 % (12:50 am)57 % (4:00 pm)
Barometer29.42 in29.72 in (1:00 am)29.33 in (2:20 pm)
Wind Speed4.9 mph11.5 mph (8:20 pm)
Weather ElementAverage
Visibility7 mi
Wind DirectionSSE (173 °)

Weather ElementTotal
Precipitation---
Heating Degree Days42 (Base 65)
Averaged from 54 records on January 19, 2013
WEATHER CONDITIONS BREAKOUT
WIND DIRECTION BREAKOUT
WEATHER BY HOUR - JANUARY 19, 2013
[ °C ]   °F
Local TimeTemperatureDewpointHumidityBarometerVisibilityWind DirectionWind SpeedGust SpeedPrecipitationEventsConditions
12:50 AM12.2 °F12.2 °F100 %29.53 in3.7 miWest (260°)3.5 mphScattered Clouds
1:00 AM12.0 °F11.0 °F95 %29.72 in4.0 miWest (260°)4.5 mph
1:20 AM14.0 °F12.2 °F93 %29.53 in3.7 miWSW (240°)3.5 mphScattered Clouds
1:50 AM12.2 °F10.4 °F92 %29.53 inVariable1.2 mphPartly Cloudy
2:20 AM12.2 °F10.4 °F92 %29.53 inWSW (250°)2.3 mphPartly Cloudy
2:50 AM12.2 °F12.2 °F100 %29.50 in3.7 miVariable2.3 mphPartly Cloudy
3:20 AM10.4 °F8.6 °F92 %29.50 in3.7 miVariable2.3 mphMist
3:50 AM12.2 °F10.4 °F92 %29.50 in5.6 miWSW (250°)3.5 mphMostly Cloudy
4:00 AM12.0 °F11.0 °F92 %29.68 in6.0 miWSW (250°)4.5 mphMostly Cloudy
4:20 AM14.0 °F12.2 °F93 %29.50 in6.2 miVariable2.3 mphMostly Cloudy
4:50 AM14.0 °F12.2 °F93 %29.47 in6.2 miVariable2.3 mphPartly Cloudy
5:20 AM14.0 °F12.2 °F93 %29.47 in6.2 miWSW (250°)3.5 mphMostly Cloudy
5:50 AM15.8 °F14.0 °F93 %29.44 in6.2 miVariable2.3 mphMostly Cloudy
6:20 AM15.8 °F12.2 °F86 %29.44 in6.2 miWest (270°)3.5 mphMostly Cloudy
6:50 AM15.8 °F14.0 °F93 %29.44 in6.2 miWSW (250°)2.3 mphMostly Cloudy
7:00 AM16.0 °F14.0 °F87 %29.60 in7.0 miWSW (250°)2.2 mphPartly Cloudy
7:20 AM15.8 °F14.0 °F93 %29.44 in6.2 miENE (60°)2.3 mphMostly Cloudy
7:50 AM15.8 °F14.0 °F93 %29.44 in6.2 miSouth (190°)2.3 mphMostly Cloudy
8:20 AM17.6 °F14.0 °F86 %29.42 in6.2 miVariable2.3 mphMostly Cloudy
8:50 AM17.6 °F15.8 °F93 %29.42 in6.2 miCalmMostly Cloudy
9:20 AM19.4 °F15.8 °F86 %29.42 in6.2 miVariable1.2 mphMostly Cloudy
9:50 AM19.4 °F15.8 °F86 %29.42 in6.2 miWest (280°)3.5 mphMostly Cloudy
10:20 AM21.2 °F17.6 °F86 %29.42 in6.2 miVariable2.3 mphMostly Cloudy
10:50 AM23.0 °F17.6 °F80 %29.42 in6.2 miVariable2.3 mphMostly Cloudy
11:20 AM24.8 °F17.6 °F74 %29.39 in6.2 miVariable1.2 mphMostly Cloudy
11:50 AM24.8 °F19.4 °F80 %29.39 in6.2 miVariable2.3 mphMostly Cloudy
12:20 PM28.4 °F21.2 °F74 %29.36 in6.2 miVariable2.3 mphScattered Clouds
12:50 PM30.2 °F21.2 °F69 %29.36 in6.2 miWSW (250°)3.5 mphScattered Clouds
1:00 PM30.0 °F22.0 °F60 %29.45 in31.0 miWSW (250°)4.5 mphPartly Cloudy
1:20 PM33.8 °F23.0 °F65 %29.36 in6.2 miVariable1.2 mphMostly Cloudy
1:50 PM33.8 °F23.0 °F65 %29.36 in6.2 miWest (270°)4.6 mphMostly Cloudy
2:20 PM35.6 °F24.8 °F65 %29.33 in6.2 miWest (270°)4.6 mphMostly Cloudy
2:50 PM35.6 °F23.0 °F60 %29.33 in6.2 miWest (260°)9.2 mphMostly Cloudy
3:20 PM33.8 °F23.0 °F65 %29.33 in6.2 miWest (260°)8.1 mphMostly Cloudy
3:50 PM33.8 °F24.8 °F70 %29.33 in6.2 miWSW (240°)6.9 mphMostly Cloudy
4:00 PM34.0 °F24.0 °F57 %29.42 in31.0 miWSW (240°)6.7 mphMostly Cloudy
4:20 PM33.8 °F26.6 °F75 %29.33 in6.2 miWSW (240°)5.8 mphMostly Cloudy
4:50 PM33.8 °F26.6 °F75 %29.33 in6.2 miWSW (240°)5.8 mphMostly Cloudy
5:20 PM33.8 °F26.6 °F75 %29.33 in6.2 miVariable4.6 mphMostly Cloudy
5:50 PM35.6 °F24.8 °F65 %29.33 in6.2 miVariable5.8 mphMostly Cloudy
6:20 PM33.8 °F26.6 °F75 %29.33 in6.2 miWest (260°)10.4 mphMostly Cloudy
6:50 PM32.0 °F26.6 °F80 %29.36 in6.2 miWest (270°)10.4 mphMostly Cloudy
7:00 PM32.0 °F26.0 °F71 %29.44 in9.0 miWest (270°)11.2 mphPartly Cloudy
7:20 PM32.0 °F26.6 °F80 %29.36 in6.2 miWest (270°)9.2 mphMostly Cloudy
7:50 PM32.0 °F26.6 °F80 %29.36 in6.2 miWest (270°)9.2 mphMostly Cloudy
8:20 PM32.0 °F28.4 °F87 %29.36 in6.2 miWest (260°)11.5 mphMostly Cloudy
8:50 PM33.8 °F28.4 °F81 %29.36 in6.2 miWest (260°)9.2 mphMostly Cloudy
9:20 PM32.0 °F28.4 °F87 %29.36 in6.2 miWest (270°)10.4 mphMostly Cloudy
9:50 PM32.0 °F28.4 °F87 %29.36 in6.2 miWNW (290°)9.2 mphMostly Cloudy
10:00 PM32.0 °F28.0 °F78 %29.45 in9.0 miWNW (290°)8.9 mphScattered Clouds
10:20 PM32.0 °F28.4 °F87 %29.36 in6.2 miWest (260°)8.1 mphMostly Cloudy
10:50 PM32.0 °F28.4 °F87 %29.36 in6.2 miSW (230°)5.8 mphMostly Cloudy
11:20 PM32.0 °F28.4 °F87 %29.36 in6.2 miWNW (290°)4.6 mphMostly Cloudy
11:50 PM32.0 °F28.4 °F87 %29.36 in6.2 miWest (270°)6.9 mphMostly Cloudy
Hourly data recorded from LOWI, located miles away from Innsbruck, Austria







STORIES FROM OUR PARTNERS